Location: St. Andrews
(45.0670°N, 67.0330°W)
Time: 15:50:15
(UTC-03:00)

Amateur Radio Satellites - All Passes

Search period start: 02 September 2014 15:20
Search period end: 03 September 2014 15:20
Location: St. Andrews, 45.0670°N, 67.0330°W

Satellite Date Start Highest point End Downlink Frequencies (MHz)
Time Altitude Azimuth
Oscar 16 02 Sep 15:33:59 15:37:15 17° 270° (W) 15:40:33 437.025 USB, Beacon 2401.1428
ITAMSAT 1 02 Sep 15:35:44 15:40:25 34° 263° (W) 15:45:07 435.822 SSB
MaSat-1 02 Sep 15:37:11 15:40:03 15° 320° (NW) 15:42:55 437.345 MHz
AO-7 02 Sep 15:39:46 15:47:22 41° 59° (ENE) 15:54:58 29.400 - 29.500 MHz
ISS 02 Sep 15:41:20 15:44:38 58° 25° (NNE) 15:47:56 145.800 FM
Uribyol 2 02 Sep 15:45:24 15:49:44 27° 266° (W) 15:54:06 436.500 FM
Uosat F 02 Sep 15:54:44 15:58:55 27° 64° (ENE) 16:03:06 435.120 FM
TMSAT-1 02 Sep 15:59:27 16:04:40 62° 259° (WSW) 16:09:56 436.925 FM
AO-27 02 Sep 16:07:00 16:10:35 19° 269° (W) 16:14:11 436.795 MHz FM
Sapphire 02 Sep 16:09:39 16:13:28 20° 106° (ESE) 16:17:18 437.095 MHz 1200 baud AX-25 AFSK
PCSat 02 Sep 16:37:26 16:42:20 36° 112° (ESE) 16:47:16 145.825 MHz
Gurwin Techsat 1B 02 Sep 16:52:04 16:55:28 17° 270° (W) 16:58:52 435.225 FM
JAS-1B 02 Sep 17:08:48 17:14:20 17° 274° (W) 17:19:36 435.800 - 435.900 CW/SSB
ISS 02 Sep 17:18:26 17:21:10 24° 223° (SW) 17:23:53 145.800 FM
OPAL 02 Sep 17:24:32 17:29:03 29° 97° (E) 17:33:31 ?
RS-15 02 Sep 17:25:35 17:36:36 76° 240° (WSW) 17:48:05 29.354 - 29.394 USB, Beacon 29.352 USB
AO-7 02 Sep 17:31:55 17:39:59 52° 258° (WSW) 17:48:05 29.400 - 29.500 MHz
Uosat F 02 Sep 17:32:50 17:37:32 40° 262° (W) 17:42:15 435.120 FM
JAS-2 02 Sep 17:41:30 17:46:41 34° 67° (ENE) 17:51:28 435.800 - 435.900 CW/SSB, 435.910 FM
Sapphire 02 Sep 17:50:59 17:56:21 66° 305° (NW) 18:01:47 437.095 MHz 1200 baud AX-25 AFSK
Hamsat 02 Sep 18:16:09 18:20:25 59° 73° (ENE) 18:24:44 145.90 MHz
PCSat 02 Sep 18:20:40 18:25:43 39° 311° (NW) 18:30:49 145.825 MHz
SO-67 02 Sep 18:39:58 18:41:42 13° 65° (ENE) 18:43:27 435.3500 MHz FM
OPAL 02 Sep 19:03:08 19:08:01 41° 295° (WNW) 19:12:52 ?
STRAND 1 02 Sep 19:13:53 19:17:19 18° 91° (E) 19:20:45 ?
JAS-2 02 Sep 19:26:19 19:31:46 37° 262° (W) 19:36:47 435.800 - 435.900 CW/SSB, 435.910 FM
Sapphire 02 Sep 19:37:37 19:40:52 16° 326° (NNW) 19:44:08 437.095 MHz 1200 baud AX-25 AFSK
RS-15 02 Sep 19:40:10 19:47:04 19° 262° (W) 19:54:08 29.354 - 29.394 USB, Beacon 29.352 USB
HO-68 02 Sep 19:46:10 19:51:05 21° 52° (NE) 19:55:59 435.675 MHz FM
Hamsat 02 Sep 19:54:27 19:56:46 14° 271° (W) 19:59:07 145.90 MHz
PCSat 02 Sep 20:09:15 20:10:45 11° 334° (NNW) 20:12:15 145.825 MHz
SO-67 02 Sep 20:11:05 20:14:24 42° 262° (W) 20:17:44 435.3500 MHz FM
STRAND 1 02 Sep 20:51:53 20:56:56 61° 288° (WNW) 21:01:57 ?
HO-68 02 Sep 21:30:42 21:37:51 87° 72° (ENE) 21:45:02 435.675 MHz FM
UKube-1 02 Sep 21:52:46 21:57:05 72° 74° (ENE) 22:01:25 145.840 MHz, 145.915 MHz
Oscar 11 02 Sep 21:55:38 21:59:47 47° 71° (ENE) 22:04:00 145.825 FM, Beacon 2401.500 USB
MaSat-1 02 Sep 22:13:03 22:17:33 47° 56° (NE) 22:21:26 437.345 MHz
Saudisat 1A 02 Sep 22:19:30 22:23:33 37° 117° (ESE) 22:27:37 436.775 MHz
FUNcube-1 02 Sep 22:30:22 22:34:21 43° 71° (ENE) 22:38:27 145.950 - 145.970 MHz USB
KITSAT 1 02 Sep 22:50:59 22:57:56 33° 108° (ESE) 23:04:54 435.175 FM
HO-68 02 Sep 23:21:46 23:26:26 18° 271° (W) 23:31:08 435.675 MHz FM
UKube-1 02 Sep 23:32:12 23:33:46 12° 271° (W) 23:35:21 145.840 MHz, 145.915 MHz
Oscar 11 02 Sep 23:33:18 23:36:14 18° 269° (W) 23:39:12 145.825 FM, Beacon 2401.500 USB
PCSat 02 Sep 23:41:01 23:43:21 13° 29° (NNE) 23:45:41 145.825 MHz
MaSat-1 02 Sep 23:51:00 23:54:02 18° 258° (WSW) 23:56:47 437.345 MHz
Saudisat 1A 02 Sep 23:59:14 00:03:10 31° 316° (NW) 00:07:09 436.775 MHz
FUNcube-1 03 Sep 00:08:03 00:10:59 18° 269° (W) 00:14:00 145.950 - 145.970 MHz USB
KITSAT 1 03 Sep 00:44:50 00:52:51 65° 308° (NW) 01:00:55 435.175 FM
Sapphire 03 Sep 00:54:01 00:58:45 29° 45° (NE) 01:03:26 437.095 MHz 1200 baud AX-25 AFSK
PCSat 03 Sep 01:22:55 01:28:11 47° 51° (NE) 01:33:24 145.825 MHz
Oscar 16 03 Sep 02:02:53 02:06:42 20° 92° (E) 02:10:29 437.025 USB, Beacon 2401.1428
Uribyol 2 03 Sep 02:17:57 02:19:58 12° 88° (E) 02:21:59 436.500 FM
Sapphire 03 Sep 02:37:10 02:42:28 53° 245° (WSW) 02:47:42 437.095 MHz 1200 baud AX-25 AFSK
AO-27 03 Sep 02:37:36 02:41:08 18° 91° (E) 02:44:39 436.795 MHz FM
KITSAT 1 03 Sep 02:43:45 02:49:58 23° 334° (NNW) 02:56:13 435.175 FM
JAS-1B 03 Sep 02:58:57 03:04:30 28° 91° (E) 03:09:28 435.800 - 435.900 CW/SSB
Oscar 19 03 Sep 03:05:40 03:10:53 71° 103° (ESE) 03:16:03 437.125 CW, 437.150 USB
AO-Echo 03 Sep 03:06:15 03:10:32 34° 97° (E) 03:14:50 ?
PCSat 03 Sep 03:06:45 03:11:22 29° 250° (WSW) 03:15:58 145.825 MHz
OPAL 03 Sep 03:07:19 03:08:18 11° 50° (NE) 03:09:16 ?
SO-50 03 Sep 03:12:15 03:16:09 30° 115° (ESE) 03:20:09 436.795 FM
Gurwin Techsat 1B 03 Sep 03:24:36 03:28:47 23° 93° (E) 03:32:57 435.225 FM
Oscar 10/S400 03 Sep 03:41:09 04:49:02 34° 231° (SW) 08:59:38 145.825 - 145.975 CW/USB, Beacon 145.810 USB
Oscar 16 03 Sep 03:41:18 03:46:24 56° 289° (WNW) 03:51:27 437.025 USB, Beacon 2401.1428
ITAMSAT 1 03 Sep 03:45:51 03:51:04 73° 103° (ESE) 03:56:14 435.822 SSB
Uribyol 2 03 Sep 03:54:55 04:00:09 89° 285° (WNW) 04:05:22 436.500 FM
TMSAT-1 03 Sep 04:13:15 04:18:21 46° 99° (E) 04:23:25 436.925 FM
AO-27 03 Sep 04:15:57 04:21:05 62° 288° (WNW) 04:26:11 436.795 MHz FM
OPAL 03 Sep 04:41:09 04:46:10 64° 69° (ENE) 04:51:17 ?
KITSAT 1 03 Sep 04:44:06 04:48:54 16° 4° (N) 04:53:42 435.175 FM
AO-Echo 03 Sep 04:45:15 04:49:14 28° 294° (WNW) 04:53:14 ?
Oscar 19 03 Sep 04:46:15 04:49:39 18° 301° (WNW) 04:53:03 437.125 CW, 437.150 USB
JAS-1B 03 Sep 04:49:09 04:55:33 47° 295° (WNW) 05:01:09 435.800 - 435.900 CW/SSB
SO-50 03 Sep 04:52:25 04:56:37 37° 315° (NW) 05:00:56 436.795 FM
UOSAT-12 03 Sep 04:52:33 04:56:22 26° 114° (ESE) 05:00:16 437.025 FM, 437.400 FM
Gurwin Techsat 1B 03 Sep 05:03:54 05:09:02 50° 290° (WNW) 05:14:08 435.225 FM
Saudisat 1A 03 Sep 05:05:55 05:07:52 13° 29° (NNE) 05:09:48 436.775 MHz
ITAMSAT 1 03 Sep 05:26:39 05:29:59 18° 301° (WNW) 05:33:19 435.822 SSB
AO-7 03 Sep 05:30:51 05:38:51 50° 101° (E) 05:46:48 29.400 - 29.500 MHz
Uribyol 2 03 Sep 05:36:14 05:38:53 14° 303° (WNW) 05:41:31 436.500 FM
Uosat F 03 Sep 05:38:06 05:43:01 52° 100° (E) 05:47:53 435.120 FM
RS-15 03 Sep 05:48:17 05:51:49 12° 94° (E) 05:55:19 29.354 - 29.394 USB, Beacon 29.352 USB
TMSAT-1 03 Sep 05:53:40 05:58:02 27° 297° (WNW) 06:02:23 436.925 FM
OPAL 03 Sep 06:22:06 06:25:30 18° 267° (W) 06:28:56 ?
STRAND 1 03 Sep 06:31:28 06:35:57 32° 66° (ENE) 06:40:28 ?
UOSAT-12 03 Sep 06:31:51 06:36:19 45° 313° (NW) 06:40:52 437.025 FM, 437.400 FM
JAS-2 03 Sep 06:32:18 06:36:27 23° 94° (E) 06:40:51 435.800 - 435.900 CW/SSB, 435.910 FM
SO-50 03 Sep 06:37:35 06:38:32 11° 337° (NNW) 06:39:30 436.795 FM
KITSAT 1 03 Sep 06:40:37 06:47:30 29° 33° (NNE) 06:54:19 435.175 FM
Saudisat 1A 03 Sep 06:44:04 06:48:26 55° 50° (NE) 06:52:45 436.775 MHz
Uosat F 03 Sep 07:17:40 07:21:27 22° 298° (WNW) 07:25:13 435.120 FM
AO-7 03 Sep 07:23:54 07:31:32 43° 301° (WNW) 07:39:08 29.400 - 29.500 MHz
SO-67 03 Sep 07:34:38 07:35:45 11° 90° (E) 07:36:51 435.3500 MHz FM
Hamsat 03 Sep 07:35:45 07:40:08 87° 284° (WNW) 07:44:26 145.90 MHz
RS-15 03 Sep 07:50:52 08:01:37 60° 115° (ESE) 08:12:13 29.354 - 29.394 USB, Beacon 29.352 USB
STRAND 1 03 Sep 08:10:29 08:15:06 34° 263° (W) 08:19:44 ?
UOSAT-12 03 Sep 08:15:48 08:17:41 12° 335° (NNW) 08:19:34 437.025 FM, 437.400 FM
JAS-2 03 Sep 08:16:45 08:21:51 51° 290° (WNW) 08:27:20 435.800 - 435.900 CW/SSB, 435.910 FM
Saudisat 1A 03 Sep 08:24:31 08:27:38 19° 248° (WSW) 08:30:44 436.775 MHz
KITSAT 1 03 Sep 08:35:52 08:44:01 88° 57° (ENE) 08:52:06 435.175 FM
HO-68 03 Sep 08:58:35 09:02:04 14° 86° (E) 09:05:32 435.675 MHz FM
SO-67 03 Sep 09:05:44 09:09:04 46° 287° (WNW) 09:12:23 435.3500 MHz FM
Hamsat 03 Sep 09:14:38 09:15:22 10° 302° (WNW) 09:16:05 145.90 MHz
AO-7 03 Sep 09:19:40 09:22:08 12° 324° (NW) 09:24:37 29.400 - 29.500 MHz
UKube-1 03 Sep 09:42:12 09:42:41 10° 88° (E) 09:43:11 145.840 MHz, 145.915 MHz
ISS 03 Sep 10:01:36 10:04:42 37° 142° (SE) 10:07:49 145.800 FM
SO-50 03 Sep 10:02:01 10:04:20 13° 28° (NNE) 10:06:39 436.795 FM
RS-15 03 Sep 10:03:46 10:14:19 49° 321° (NW) 10:24:53 29.354 - 29.394 USB, Beacon 29.352 USB
KITSAT 1 03 Sep 10:32:42 10:38:23 21° 257° (WSW) 10:44:02 435.175 FM
HO-68 03 Sep 10:43:43 10:50:55 77° 105° (ESE) 10:58:05 435.675 MHz FM
UKube-1 03 Sep 11:15:06 11:19:28 81° 285° (WNW) 11:23:48 145.840 MHz, 145.915 MHz
Oscar 11 03 Sep 11:17:09 11:21:33 74° 102° (ESE) 11:25:54 145.825 FM, Beacon 2401.500 USB
ISS 03 Sep 11:38:13 11:41:25 42° 340° (NNW) 11:44:37 145.800 FM
UOSAT-12 03 Sep 11:40:54 11:42:39 12° 25° (NNE) 11:44:23 437.025 FM, 437.400 FM
SO-50 03 Sep 11:41:18 11:45:58 52° 49° (NE) 11:50:42 436.795 FM
FUNcube-1 03 Sep 11:53:13 11:57:48 74° 102° (ESE) 12:02:24 145.950 - 145.970 MHz USB
JAS-1B 03 Sep 12:02:00 12:03:04 10° 43° (NE) 12:04:06 435.800 - 435.900 CW/SSB
MaSat-1 03 Sep 12:03:56 12:06:56 16° 101° (E) 12:10:01 437.345 MHz
RS-15 03 Sep 12:21:11 12:30:06 27° 353° (N) 12:39:08 29.354 - 29.394 USB, Beacon 29.352 USB
HO-68 03 Sep 12:32:25 12:37:56 25° 305° (NW) 12:43:28 435.675 MHz FM
Oscar 19 03 Sep 12:47:26 12:50:56 19° 60° (ENE) 12:54:27 437.125 CW, 437.150 USB
Oscar 11 03 Sep 12:55:07 12:57:08 13° 300° (WNW) 12:59:09 145.825 FM, Beacon 2401.500 USB
ISS 03 Sep 13:15:52 13:18:42 25° 360° (N) 13:21:33 145.800 FM
UOSAT-12 03 Sep 13:19:31 13:24:03 42° 47° (NE) 13:28:31 437.025 FM, 437.400 FM
Oscar 16 03 Sep 13:21:31 13:26:12 36° 67° (ENE) 13:30:56 437.025 USB, Beacon 2401.1428
SO-50 03 Sep 13:22:28 13:26:16 24° 247° (WSW) 13:30:05 436.795 FM
ITAMSAT 1 03 Sep 13:28:32 13:32:10 20° 60° (ENE) 13:35:49 435.822 SSB
FUNcube-1 03 Sep 13:31:13 13:33:38 14° 299° (WNW) 13:36:04 145.950 - 145.970 MHz USB
Uribyol 2 03 Sep 13:36:55 13:40:59 24° 62° (ENE) 13:45:05 436.500 FM
MaSat-1 03 Sep 13:38:17 13:43:17 75° 299° (WNW) 13:48:28 437.345 MHz
JAS-1B 03 Sep 13:43:02 13:51:38 41° 63° (ENE) 13:59:14 435.800 - 435.900 CW/SSB
AO-27 03 Sep 13:57:24 14:02:02 34° 66° (ENE) 14:06:40 436.795 MHz FM
TMSAT-1 03 Sep 13:59:38 14:02:10 14° 56° (NE) 14:04:42 436.925 FM
AO-Echo 03 Sep 14:20:58 14:25:49 57° 72° (ENE) 14:30:34 ?
Oscar 19 03 Sep 14:24:36 14:29:45 68° 258° (WSW) 14:34:57 437.125 CW, 437.150 USB
RS-15 03 Sep 14:36:44 14:46:40 37° 28° (NNE) 14:56:49 29.354 - 29.394 USB, Beacon 29.352 USB
AO-7 03 Sep 14:42:44 14:48:27 21° 47° (NE) 14:54:08 29.400 - 29.500 MHz
Gurwin Techsat 1B 03 Sep 14:47:26 14:52:26 44° 68° (ENE) 14:57:27 435.225 FM
ISS 03 Sep 14:52:48 14:56:00 42° 20° (NNE) 14:59:11 145.800 FM
UOSAT-12 03 Sep 15:00:01 15:04:03 28° 246° (WSW) 15:08:01 437.025 FM, 437.400 FM
Oscar 16 03 Sep 15:01:01 15:05:35 31° 264° (W) 15:10:12 437.025 USB, Beacon 2401.1428
ITAMSAT 1 03 Sep 15:06:05 15:11:12 63° 258° (WSW) 15:16:20 435.822 SSB
